Lid_Strength_Index
-1 -0 1 3 6 7 8 7 5 6 5 4 4 4 5 4 6 8 1 1 -0 -0 -1 -1 -1 -1 -1 -1 -1 -1 -1 -1 -1 -1 -1 -1 -1 -1 -1 -2 -2 -2 -2 -2 -2 -2 -2 -2 -1
0 0 3 4 8 9 8 6 6 5 4 3 4 4 5 5 3 3 2 0 -0 -0 -1 -1 -1 -1 -1 -1 -1 -1 -1 -1 -1 -1 -1 -1 -1 -1 -1 -2 -2 -2 -2 -2 -2 -2 -2 -1 -1
-0 2 5 7 7 9 8 6 5 4 4 4 4 3 4 4 2 2 0 -0 -0 -0 -1 -1 -1 -1 -1 -1 -1 -1 -1 -1 -1 -1 -1 -1 -1 -2 -2 -2 -2 -2 -2 -2 -2 -2 -2 -1 -1
1 3 5 8 9 7 6 5 5 5 4 3 4 5 3 2 2 1 0 0 0 -0 -1 -1 -1 -1 -1 -1 -1 -1 -1 -1 -1 -1 -1 -1 -1 -2 -2 -2 -2 -2 -2 -2 -2 -2 -2 -1 -1
1 4 8 9 9 6 5 4 4 5 4 4 4 5 4 2 1 1 0 -0 0 -0 -1 -1 -1 -1 -1 -1 -1 -1 -1 -1 -1 -1 -1 -1 -2 -2 -2 -2 -2 -2 -2 -2 -2 -2 -1 -1 -1
4 5 10 9 8 6 5 4 4 4 4 4 4 4 4 1 1 1 0 0 -0 -0 -1 -1 -1 -1 -1 -1 -1 -1 -1 -1 -1 -1 -1 -2 -2 -2 -2 -2 -2 -2 -2 -2 -2 -2 -1 -1 -1
5 6 8 8 8 7 5 3 4 4 4 4 3 5 3 2 1 0 0 -0 -0 -0 -0 -1 -1 -1 -1 -1 -1 -1 -1 -1 -1 -1 -1 -1 -2 -2 -2 -2 -2 -2 -2 -2 -2 -2 -1 -1 -1
4 5 7 7 8 8 5 4 4 5 5 2 2 5 5 2 1 0 0 0 -0 -0 -0 -0 -1 -1 -1 -1 -1 -1 -1 -1 -1 -1 -1 -1 -2 -2 -2 -1 -2 -2 -2 -2 -2 -2 -1 -1 -1
2 7 9 7 7 7 5 5 4 3 4 3 3 3 2 1 1 1 1 1 0 0 -0 -0 -0 -1 -1 -1 -1 -1 -1 -1 -1 -1 -1 -1 -2 -2 -2 -2 -2 -2 -2 -2 -1 -2 -2 -1 -1
5 8 8 5 5 6 5 5 4 5 5 4 3 2 2 1 1 2 2 2 1 1 0 -0 -1 -0 -1 -0 -1 -1 -1 -1 -1 -2 -2 -1 -2 -2 -2 -2 -2 -2 -1 -1 -1 -1 -1 -1 -1
5 8 5 5 4 4 5 5 4 5 5 4 4 3 2 2 2 2 2 1 1 1 0 -0 -0 -1 -1 -0 -1 -0 -1 -1 -1 -2 -2 -2 -2 -2 -1 -1 -1 -2 -1 -1 -1 -1 -1 -1 -1
6 6 5 5 4 4 5 5 5 5 4 3 2 2 2 2 2 2 2 1 1 1 0 -0 -0 -0 -1 -0 -0 -1 -0 -0 -0 -1 -2 -1 -0 -1 -1 -1 -1 -1 -1 -1 -1 -1 -1 -1 -1
6 5 5 5 4 4 4 5 5 5 4 3 3 3 2 2 2 1 1 1 1 1 0 -0 -1 -0 -0 -0 -0 -0 -0 -0 -1 -1 -1 -1 -0 -0 -1 -1 -1 -1 -1 -1 -1 -1 -1 -0 -1
5 5 5 4 5 5 5 5 5 4 3 4 3 3 3 2 2 2 1 1 1 0 0 -0 -0 -1 -0 0 -0 -0 -0 -1 -0 -1 -1 -1 -1 -0 -0 -0 -0 -1 -1 -1 -0 -0 -0 -0 -1
5 7 6 5 5 6 5 7 7 4 3 3 3 3 2 2 2 2 1 1 1 0 -0 -0 -1 -1 -0 -0 -0 -0 -0 -0 -0 -0 -1 -1 -1 -1 -1 -0 -0 -0 -1 -1 -1 -1 -1 -0 -0
8 7 9 7 5 5 5 9 6 5 4 4 4 3 3 2 2 1 1 1 0 0 0 -0 -0 -0 -0 -0 -0 -0 -0 -0 -0 -0 -1 -1 -1 -1 -1 -0 -0 -1 -1 -0 -0 -0 0 0 0
9 11 9 8 6 6 6 8 5 4 5 5 4 3 3 3 2 1 1 1 0 -0 -0 0 -0 -0 -1 -1 -0 -1 -1 -0 -0 -0 -0 -1 -1 -1 -0 -0 -0 -1 -0 -0 -0 0 0 1 1
11 10 9 9 7 6 7 7 5 4 4 5 4 4 3 3 3 1 1 0 0 0 -0 -0 -0 -1 -1 -1 -1 -0 -0 -0 -0 -0 -0 -1 -0 -1 -0 -0 -0 -0 -0 0 0 0 0 0 0
9 10 10 8 6 6 7 7 6 5 5 5 4 4 4 3 2 1 1 1 0 0 0 0 0 -0 0 0 1 1 1 0 0 -0 -1 -1 -1 -0 -0 -0 -0 -0 0 0 -0 0 1 1 0
9 10 10 9 7 6 7 8 6 5 5 5 4 4 4 3 3 2 1 1 1 1 0 0 0 0 0 0 0 0 0 0 0 -0 -0 -1 -0 -0 -0 -0 0 -0 0 0 0 0 1 1 1
10 11 11 10 8 6 7 9 7 5 5 4 4 4 3 3 3 2 2 2 1 1 1 1 0 0 0 -0 0 0 0 0 1 1 1 0 -0 -0 -0 -0 0 0 0 1 0 0 1 2 1
11 8 9 10 10 12 7 13 8 7 6 5 4 4 4 3 3 3 3 2 2 1 0 0 0 0 0 -0 0 1 2 2 1 1 1 0 -0 0 0 -0 -0 0 0 0 0 0 0 1 2
9 7 8 8 9 10 10 11 9 7 8 6 5 4 4 3 3 3 2 2 1 1 1 0 0 0 0 0 0 1 1 1 1 1 1 1 0 0 0 -0 0 0 0 -0 0 0 0 1 1
6 7 8 8 9 13 10 11 11 9 7 6 5 4 4 3 3 2 2 2 1 1 1 0 1 1 0 0 1 1 1 1 2 2 2 2 1 1 0 0 0 -0 -0 0 0 -0 -0 0 0
7 9 13 14 14 14 9 11 10 7 6 5 5 4 3 3 3 2 2 2 2 1 1 1 1 1 1 1 1 1 1 1 1 2 2 2 2 1 1 0 0 0 -0 -0 -1 -0 -0 0 1
9 9 13 17 16 14 10 13 10 6 5 4 4 4 3 3 3 2 2 2 2 1 1 1 1 1 1 1 1 1 1 1 1 1 1 1 1 1 0 0 -0 -0 -0 -0 -0 0 0 -0 0
9 11 8 12 12 14 12 10 7 6 6 5 5 4 4 3 3 3 2 2 2 1 1 1 1 1 1 1 1 1 1 1 1 1 1 1 0 1 0 -0 -0 -0 -0 -0 -0 0 0 -0 0
8 7 14 12 16 17 13 12 12 8 7 6 5 5 4 3 4 3 3 2 2 1 2 1 1 2 1 1 1 1 1 1 1 1 1 1 1 0 0 0 -0 -0 -0 -0 -0 0 0 0 0
10 11 9 12 13 15 16 14 7 8 6 6 5 5 4 4 5 4 3 3 2 2 2 2 2 2 2 2 2 2 2 1 1 1 1 0 -0 0 0 0 0 0 -0 -0 -0 0 0 1 1
7 9 10 14 16 13 13 13 7 7 5 5 5 4 4 4 5 4 4 4 3 3 2 2 2 2 2 2 2 2 1 1 1 1 0 0 0 -0 0 0 0 0 0 -0 0 1 1 1 1